CW6575 Weather Reports


Display with metric or nautical units.
time (UTC)temp
F
wind
direction
speed
MPH
gust
MPH
rain 1hr
in
rain 24hr
in
rain mn
in
humidity
%
barometer
mb
20260509130015 53 210 0.0 3.0 0.00 0.00 0.00 69 1009.3
20260509124508 52 210 0.0 1.0 0.00 0.00 0.00 73 1009.4
20260509123101 51 210 0.0 2.0 0.00 0.00 0.00 73 1009.4
20260509121558 0 0.0 0.0 0.00 0.00 0.00 1009.6
20260509120055 0 0.0 0.0 0.00 0.00 0.00 1009.7
20260509114551 0 0.0 0.0 0.00 0.00 0.00 1009.9
20260509113050 0 0.0 0.0 0.00 0.00 0.00 1009.9
20260509111540 0 0.0 0.0 0.00 0.00 0.00 1009.8
20260509110037 0 0.0 0.0 0.00 0.00 0.00 1009.9
20260509104532 0 0.0 0.0 0.00 0.00 0.00 1009.8
20260509103027 0 0.0 0.0 0.00 0.00 0.00 1009.8
20260509101534 0 0.0 0.0 0.00 0.00 0.00 1009.8
20260509100023 0 0.0 0.0 0.00 0.00 0.00 1009.6
20260509094519 0 0.0 0.0 0.00 0.00 0.00 1009.6
20260509093011 0 0.0 0.0 0.00 0.00 0.00 1009.7
20260509091506 0 0.0 0.0 0.00 0.00 0.00 1009.8
20260509090002 0 0.0 0.0 0.00 0.00 0.00 1010.0
20260509084600 0 0.0 0.0 0.00 0.00 0.00 1010.1
20260509083053 0 0.0 0.0 0.00 0.00 0.00 1010.2
20260509081550 0 0.0 0.0 0.00 0.00 0.00 1010.3
20260509080044 0 0.0 0.0 0.00 0.00 0.00 1010.4
20260509074551 0 0.0 0.0 0.00 0.00 0.00 1010.3
20260509073036 0 0.0 0.0 0.00 0.00 0.00 1010.4
20260509071530 0 0.0 0.0 0.00 0.00 0.00 1010.4
20260509070027 0 0.0 0.0 0.00 0.00 0.00 1010.7
20260509064522 0 0.0 0.0 0.00 0.00 0.00 1010.6
20260509063018 0 0.0 0.0 0.00 0.00 0.00 1010.7
20260509061515 50 155 1.0 4.0 0.00 0.00 0.00 74 1010.9
20260509060012 50 155 1.0 5.0 0.00 0.00 0.00 73 1011.1
20260509054509 51 155 2.0 5.0 0.00 0.00 0.00 69 1011.2
20260509053008 51 155 1.0 5.0 0.00 0.00 0.00 65 1011.2
20260509051506 51 167 2.0 4.0 0.00 0.00 0.00 67 1011.5
20260509050004 51 165 1.0 4.0 0.00 0.00 0.00 68 1011.5
20260509044504 51 169 3.0 4.0 0.00 0.00 0.00 69 1011.6
20260509043001 51 171 3.0 4.0 0.00 0.00 0.00 68 1011.5
20260509041600 51 161 3.0 6.0 0.00 0.00 0.00 67 1011.7
20260509040058 52 163 3.0 5.0 0.00 0.00 0.00 69 1011.8
20260509034558 51 152 3.0 6.0 0.00 0.00 0.00 69 1011.9
20260509033059 51 170 0.0 0.0 0.00 0.00 0.00 73 1011.9
20260509031558 52 170 0.0 1.0 0.00 0.00 0.00 71 1011.9
20260509030056 52 170 1.0 3.0 0.00 0.00 0.00 67 1011.9
20260509024555 53 170 0.0 6.0 0.00 0.00 0.00 64 1012.0
20260509023055 53 150 3.0 5.0 0.00 0.00 0.00 63 1012.0
20260509021556 53 156 2.0 6.0 0.00 0.00 0.00 64 1012.0
20260509020054 53 164 4.0 6.0 0.00 0.00 0.00 64 1012.0
20260509014553 53 148 2.0 5.0 0.00 0.00 0.00 66 1012.0
20260509013056 53 159 0.0 0.0 0.00 0.00 0.00 67 1011.9
20260509011553 54 159 0.0 2.0 0.00 0.00 0.00 63 1011.6
20260509010052 54 149 4.0 6.0 0.00 0.00 0.00 62 1011.2
20260509004606 54 157 1.0 3.0 0.00 0.00 0.00 64 1011.6
20260509003052 55 147 2.0 4.0 0.00 0.00 0.00 61 1011.7
20260509001553 59 315 0.0 0.0 0.00 0.00 0.00 51 1011.8
20260509000049 61 315 0.0 3.0 0.00 0.00 0.00 44 1011.7
20260508234549 61 243 0.0 0.0 0.00 0.00 0.00 44 1011.7
20260508233048 62 272 0.0 3.0 0.00 0.00 0.00 43 1011.5
20260508231548 62 307 0.0 2.0 0.00 0.00 0.00 41 1011.4
20260508230051 64 302 1.0 3.0 0.00 0.00 0.00 37 1011.2
20260508224551 65 310 1.0 5.0 0.00 0.00 0.00 37 1011.1
20260508223050 66 317 0.0 3.0 0.00 0.00 0.00 35 1011.3
20260508221544 66 275 1.0 6.0 0.00 0.00 0.00 37 1011.4
20260508220041 66 327 0.0 5.0 0.00 0.00 0.00 36 1011.5
20260508214556 65 166 2.0 6.0 0.00 0.00 0.00 38 1011.5
20260508213038 65 5 3.0 8.0 0.00 0.00 0.00 37 1011.6
20260508211538 65 333 1.0 7.0 0.00 0.00 0.00 39 1011.7
20260508210037 65 56 2.0 6.0 0.00 0.00 0.00 41 1011.8
20260508204535 64 327 3.0 6.0 0.00 0.00 0.00 40 1012.1
20260508203031 65 36 1.0 8.0 0.00 0.00 0.00 41 1012.3
20260508201527 64 336 3.0 8.0 0.00 0.00 0.00 42 1012.4
20260508200027 64 317 3.0 7.0 0.00 0.00 0.00 42 1012.7
20260508194523 63 343 2.0 8.0 0.00 0.00 0.00 40 1013.0
20260508193019 63 348 3.0 10.0 0.00 0.00 0.00 39 1013.4
20260508191519 62 300 4.0 11.0 0.00 0.00 0.00 42 1013.4
20260508190116 63 250 1.0 6.0 0.00 0.00 0.00 42 1013.6
20260508184527 61 317 1.0 6.0 0.00 0.00 0.00 44 1013.8
20260508183027 62 331 3.0 6.0 0.00 0.00 0.00 46 1014.1
20260508181511 63 300 3.0 8.0 0.00 0.00 0.00 43 1014.2
20260508180010 63 321 3.0 11.0 0.00 0.00 0.00 42 1014.3
20260508174507 62 311 1.0 9.0 0.00 0.00 0.00 46 1014.5
20260508173005 61 294 1.0 6.0 0.00 0.00 0.00 44 1014.6
20260508171504 59 331 0.0 5.0 0.00 0.00 0.00 49 1014.8
20260508170004 61 320 3.0 9.0 0.00 0.00 0.00 46 1015.2
20260508164702 60 325 2.0 10.0 0.00 0.00 0.00 43 1015.4
20260508163058 59 355 1.0 6.0 0.00 0.00 0.00 46 1015.4
20260508161605 58 307 2.0 8.0 0.00 0.00 0.00 45 1015.7
20260508160056 58 324 3.0 9.0 0.00 0.00 0.00 43 1016.0
20260508154554 58 338 4.0 9.0 0.00 0.00 0.00 46 1016.0
20260508153057 58 337 1.0 8.0 0.00 0.00 0.00 48 1015.8
20260508151553 58 355 2.0 6.0 0.00 0.00 0.00 44 1016.0
20260508150050 57 221 2.0 8.0 0.00 0.00 0.00 44 1016.0
20260508144647 56 252 2.0 9.0 0.00 0.00 0.00 47 1016.2
20260508143047 55 338 3.0 11.0 0.00 0.00 0.00 49 1016.2
20260508141547 54 329 3.0 9.0 0.00 0.00 0.00 51 1016.3
20260508140035 52 317 4.0 12.0 0.00 0.00 0.00 51 1016.3
20260508134535 51 134 1.0 10.0 0.00 0.00 0.00 57 1016.3
20260508133031 49 144 4.0 8.0 0.00 0.00 0.00 59 1016.3
20260508131525 47 140 3.0 8.0 0.00 0.00 0.00 61 1016.4